Content
SEND FEEDBACK

Daily
Averages
Monthly
Summary
United States of America

ASHEVILLE, NORTH CAROLINA


Home > North America > United States > North Carolina
Elevation: 682 meters     Latitude: 35 36N     Longitude: 082 32W

WEATHER
 
SELECT A DAY
Number of Records: 231,081;   Date Range: 1/1/95 - 12/17/14
 
SHARE

PRINT THIS DATA

[ ← Previous Day ]
WEATHER ALMANAC - 1 FEBRUARY, 2013
[ Next Day → ]
[ °F ]   °C
Weather ElementAverageHighLow
Temperature-1.9 °C6.1 °C (2:54 am)-6.1 °C (10:54 pm)
Dewpoint-9.9 °C-0.6 °C (4:54 am)-14 °C (4:54 pm)
Humidity56.3 %89 % (4:54 am)40 % (3:54 pm)
Barometer1021.3 hPa1028.1 hPa (11:54 pm)1012.2 hPa (3:54 am)
Wind Speed22 km/h31.5 km/h (5:54 am)
Wind Gust76 km/h (3:54 am)
Weather ElementAverage
Visibility14.6 km
Wind DirectionWNW (296.5 °)

Weather ElementTotal
Precipitation---
Heating Degree Days18.3 (Base 18.3)
Averaged from 26 records on 1 February, 2013
WEATHER CONDITIONS BREAKOUT
WIND DIRECTION BREAKOUT
WEATHER BY HOUR - 1 FEBRUARY, 2013
[ °F ]   °C
Local TimeTemperatureDewpointHumidityBarometerVisibilityWind DirectionWind SpeedGust SpeedPrecipitationEventsConditions
1:54 AM5.6 °C-6.1 °C43 %1013.5 hPa16.1 kmWest (260°)24.1 km/h40.7 km/hMostly Cloudy
2:54 AM6.1 °C-5 °C45 %1012.9 hPa16.1 kmWest (280°)20.4 km/h44.4 km/hOvercast
3:54 AM6.1 °C-5 °C45 %1012.2 hPa16.1 kmWNW (290°)27.8 km/h76 km/hOvercast
4:47 AM2 °C-1 °C81 %1013.5 hPa8 kmNNW (340°)22.2 km/h40.7 km/h0 mmSnowLight Snow
4:54 AM1.1 °C-0.6 °C89 %1014.2 hPa4 kmNNW (330°)25.9 km/h40.7 km/h0 mmSnowLight Snow
5:06 AM1 °C-1 °C87 %1013.9 hPa4.8 kmNNW (330°)22.2 km/h0 mmSnowLight Snow
5:16 AM1 °C-2 °C81 %1014.2 hPa11.3 kmNW (320°)18.5 km/h31.5 km/h0 mmSnowLight Snow
5:54 AM-1.1 °C-3.9 °C82 %1016.3 hPa14.5 kmNorth (350°)31.5 km/h46.3 km/h0 mmOvercast
6:54 AM-2.8 °C-11.1 °C53 %1018.3 hPa16.1 kmNNW (340°)31.5 km/h44.4 km/hClear
7:54 AM-4.4 °C-11.1 °C60 %1020.3 hPa16.1 kmNorth (350°)27.8 km/h40.7 km/hClear
8:54 AM-4 °C-12 °C54 %1020.3 hPa16.1 kmNorth (350°)29.6 km/h42.6 km/hClear
9:54 AM-5 °C-11.7 °C60 %1023.7 hPa16.1 kmNorth (360°)29.6 km/h44.4 km/hClear
10:54 AM-4.4 °C-12.2 °C55 %1024.7 hPa16.1 kmNorth (10°)16.7 km/h37 km/hClear
11:54 AM-4 °C-13 °C50 %1023.4 hPa16.1 kmNorth (350°)14.8 km/h37 km/hClear
12:54 PM-3.3 °C-13.3 °C47 %1025.1 hPa16.1 kmNorth (360°)24.1 km/h42.6 km/hClear
1:54 PM-2.8 °C-13.3 °C45 %1024.4 hPa16.1 kmNorth (360°)22.2 km/h35.2 km/hClear
2:54 PM-1.7 °C-13.3 °C41 %1024 hPa16.1 kmNorth (350°)18.5 km/h33.3 km/hClear
3:54 PM-1.7 °C-13.9 °C40 %1024.4 hPa16.1 kmNorth (10°)20.4 km/h29.6 km/hClear
4:54 PM-2 °C-14 °C40 %1023.7 hPa16.1 kmNorth (350°)18.5 km/h31.5 km/hClear
5:54 PM-3 °C-14 °C43 %1023.7 hPa16.1 kmNorth (350°)25.9 km/hClear
6:54 PM-4.4 °C-13.9 °C48 %1026.4 hPa16.1 kmNNW (330°)18.5 km/hClear
7:54 PM-5 °C-13.9 °C50 %1027.1 hPa16.1 kmNNW (330°)24.1 km/hClear
8:54 PM-5.6 °C-13.9 °C53 %1027.8 hPa16.1 kmNNW (340°)20.4 km/hClear
9:54 PM-5.6 °C-13.3 °C55 %1027.8 hPa16.1 kmNNW (340°)18.5 km/hClear
10:54 PM-6.1 °C-13.3 °C57 %1027.8 hPa16.1 kmVariable7.4 km/hClear
11:54 PM-6.1 °C-12.8 °C60 %1028.1 hPa16.1 kmNNW (330°)11.1 km/hClear
Hourly data recorded from KAVL, located 0 kilometers away from Asheville, North Carolina







STORIES FROM OUR PARTNERS